Location: Dentlein
(49.1477°N, 10.4231°E)
Time: 03:07:27
(UTC+00:00)

Cosmos 1825 - Pass Details

Date: 14 August 2024
Orbit: 422 x 426 km, 82.5° (Epoch: 09 September)

Event Time Altitude Azimuth Distance (km) Brightness Sun altitude
Rises 02:12:51 0° 352° (N) 2,409 6.2 -16.4°
Reaches altitude 10° 02:14:56 10° 355° (N) 1,533 5.2 -16.1°
Maximum altitude 02:18:15 68° 78° (ENE) 465 2.1 -15.8°
Enters shadow 02:21:04 13° 162° (SSE) 1,321 4.0 -15.4°
